Weather History for Leuchars, United Kingdom

Change the Weather History Date:

Saturday, October 6, 2012

  Actual Average Record
Temperature  
Mean Temperature 48 °F -  
Max Temperature 56 °F 52 °F 66 °F (1996)
Min Temperature 39 °F 41 °F 33 °F (1999)
Degree Days  
Heating Degree Days 18    
Moisture  
Dew Point 38 °F    
Average Humidity 71    
Maximum Humidity 93    
Minimum Humidity 38    
Precipitation  
Precipitation 0.01 in - - ()
Sea Level Pressure  
Sea Level Pressure 29.84 in    
Wind  
Wind Speed 8 mph ()    
Max Wind Speed 12 mph    
Max Gust Speed -    
Visibility 6.2 miles    
Events      
Averages and records for this station are not official NWS values.
T = Trace of Precipitation, MM = Missing Value Source: Averaged Metar Reports

Daily Weather History Graph

Daily Weather History Graph

Search for Another Location

Airport:

Trip Planner

Search our weather history database for the weather conditions in past years. The results will help you decide how hot, cold, wet, or windy it might be!

Date:

Astronomy

Oct. 06, 2012 Rise Set
Actual Time 7:25 AM BST 6:32 PM BST
Civil Twilight 6:47 AM BST 7:09 PM BST
Nautical Twilight 6:04 AM BST 7:53 PM BST
Astronomical Twilight 5:19 AM BST 8:37 PM BST
Moon 9:41 PM BST (10/6) 2:03 PM BST (10/6)
Length of Visible Light 12h 21m
Length of Day
11h 06m
Waning Gibbous, 67% of the Moon is Illuminated
Oct 6
Waning Gibbous
Oct 8
Last Quarter
Oct 15
New
Oct 22
First Quarter
Oct 29
Full

Hourly Weather History & Observations

Time (BST) Temp. Windchill Dew Point Humidity Pressure Visibility Wind Dir Wind Speed Gust Speed Precip Events Conditions
12:50 AM 43 °F - 39 °F 82% 29.69 in 25 mi West 9.2 mph - -   Mostly Cloudy
12:50 AM 42.8 °F 37.5 °F 39.2 °F 87% 29.68 in - West 9.2 mph - N/A   Clear
1:50 AM 41.0 °F 34.7 °F 39.2 °F 93% 29.68 in - West 10.4 mph - N/A   Clear
2:50 AM 41.0 °F 34.3 °F 39.2 °F 93% 29.68 in - West 11.5 mph - N/A   Clear
3:50 AM 41 °F - 39 °F 88% 29.70 in 22 mi WSW 11.5 mph - -   Scattered Clouds
3:50 AM 41.0 °F 34.3 °F 39.2 °F 93% 29.68 in - WSW 11.5 mph - N/A   Clear
4:50 AM 41.0 °F 35.2 °F 39.2 °F 93% 29.71 in - WSW 9.2 mph - N/A   Clear
5:50 AM 41.0 °F 34.3 °F 39.2 °F 93% 29.71 in - West 11.5 mph - N/A   Clear
6:50 AM 40 °F - 38 °F 91% 29.74 in 22 mi West 10.4 mph - -   Scattered Clouds
6:50 AM 41.0 °F 34.7 °F 39.2 °F 93% 29.74 in - West 10.4 mph - N/A   Clear
7:50 AM 41.0 °F 35.2 °F 39.2 °F 93% 29.74 in - West 9.2 mph - N/A   Clear
8:50 AM 44.6 °F 39.7 °F 41.0 °F 87% 29.77 in - West 9.2 mph - N/A   Clear
9:50 AM 49 °F - 42 °F 71% 29.82 in 31 mi WSW 8.1 mph - -   Scattered Clouds
9:50 AM 48.2 °F - 42.8 °F 82% 29.80 in 6.2 mi WSW 8.1 mph - N/A   Partly Cloudy
10:50 AM 51.8 °F - 41.0 °F 67% 29.83 in 6.2 mi WNW 6.9 mph - N/A   Partly Cloudy
11:50 AM 53.6 °F - 37.4 °F 54% 29.83 in 6.2 mi NW 8.1 mph - N/A   Partly Cloudy
12:50 PM 55 °F - 38 °F 40% 29.86 in 31 mi NNW 8.1 mph - -   Scattered Clouds
12:50 PM 55.4 °F - 37.4 °F 51% 29.83 in 6.2 mi NNW 8.1 mph - N/A   Partly Cloudy
1:50 PM 55.4 °F - 37.4 °F 51% 29.86 in 6.2 mi NNW 9.2 mph - N/A   Partly Cloudy
2:50 PM 55.4 °F - 41.0 °F 58% 29.89 in - West 11.5 mph - N/A   Clear
3:50 PM 54 °F - 36 °F 38% 29.89 in 28 mi NW 6.9 mph - -   Scattered Clouds
3:50 PM 53.6 °F - 35.6 °F 51% 29.89 in - NW 6.9 mph - N/A   Clear
4:50 PM 51.8 °F - 37.4 °F 58% 29.89 in - WNW 5.8 mph - N/A   Clear
5:50 PM 51.8 °F - 35.6 °F 54% 29.92 in - NW 4.6 mph - N/A   Clear
6:50 PM 49 °F - 37 °F 52% 29.95 in 31 mi NW 6.9 mph - -   Scattered Clouds
6:50 PM 50.0 °F - 37.4 °F 62% 29.95 in - NW 6.9 mph - N/A   Clear
7:50 PM 48.2 °F - 35.6 °F 62% 29.95 in - NW 6.9 mph - N/A   Clear
8:50 PM 48.2 °F - 33.8 °F 58% 29.98 in - WNW 6.9 mph - N/A   Clear
9:50 PM 45 °F - 36 °F 60% 30.02 in 31 mi WNW 6.9 mph - -   Scattered Clouds
9:50 PM 44.6 °F 40.7 °F 35.6 °F 71% 30.01 in - WNW 6.9 mph - N/A   Clear
10:50 PM 42.8 °F 39.3 °F 35.6 °F 76% 30.04 in - West 5.8 mph - N/A   Clear
11:50 PM 42.8 °F 38.0 °F 35.6 °F 76% 30.04 in - West 8.1 mph - N/A   Clear